Theta_e
342 332 325 318 315 313 314 315 315 317 318 319 320 321 322 322 324 324 325 325 327 328 329 329 330 330 331 332 332 331 330 330 331 332 333 333 334 336 336 336 335 335 334 332 330 328 322 320 322 319 315 313 310 307 308 308 309 311 313 314 315 315 314 313 312 312 313 313 313 313 313 314 314 314 314 314 314 314 313 313 313 313 313 313 313
341 331 325 319 314 313 314 315 316 317 318 320 320 322 322 323 324 325 326 326 327 326 327 327 328 330 331 331 331 331 330 329 330 331 332 333 335 336 336 336 335 333 333 331 329 326 320 318 321 315 310 309 307 308 308 308 310 312 313 314 314 314 313 313 313 313 313 313 313 313 314 314 314 314 314 313 313 313 313 312 313 312 313 313 314
342 330 325 320 314 313 314 315 316 317 318 319 321 322 323 324 325 325 326 327 325 325 325 326 329 330 331 331 331 331 330 330 330 332 333 334 336 336 336 335 334 333 333 333 331 328 319 315 317 312 308 308 308 308 308 310 312 314 315 314 314 314 314 315 314 314 314 314 313 314 314 314 314 314 314 313 313 313 312 312 313 313 313 314 314
342 332 326 320 313 313 314 315 316 317 318 319 320 322 323 324 325 325 326 325 324 324 326 327 329 330 331 331 331 331 331 331 332 333 334 335 336 336 336 335 334 333 333 334 333 329 319 313 314 310 308 308 308 309 310 312 313 314 316 317 318 318 318 318 318 318 317 316 315 315 314 313 313 313 313 312 312 312 312 312 313 314 314 314 314
343 334 327 318 313 313 314 315 316 317 317 318 320 322 323 323 325 325 324 323 323 324 326 326 328 330 331 332 331 331 331 332 333 334 334 335 335 335 335 335 334 333 332 332 329 323 315 313 313 309 309 310 310 311 311 313 315 316 318 320 321 322 323 323 323 323 321 319 317 315 315 313 312 312 312 312 312 313 313 313 313 314 314 314 314
343 333 325 316 313 313 315 315 315 317 316 317 319 321 322 323 324 323 322 322 323 325 326 327 329 330 331 331 331 331 332 333 333 334 335 335 335 335 334 334 333 332 331 328 323 317 314 313 311 309 309 311 313 313 313 314 316 317 319 321 323 325 326 327 328 328 328 327 321 315 315 316 313 311 312 312 313 314 314 314 314 314 314 314 314
341 331 323 315 313 313 315 315 315 316 316 316 318 320 321 322 322 321 322 323 326 327 328 328 329 330 330 330 330 331 331 331 331 333 334 334 334 333 333 332 331 329 327 324 319 315 314 313 310 309 310 311 312 314 315 316 316 318 319 322 324 326 328 329 330 331 331 332 328 319 316 318 315 312 312 313 314 314 314 314 314 313 314 314 314
336 330 323 316 312 313 315 315 315 315 315 316 317 319 319 319 320 320 322 325 328 328 328 327 328 328 328 328 328 329 329 329 329 329 329 329 329 329 328 326 325 321 320 319 315 314 315 312 309 310 310 310 311 313 314 316 317 319 321 325 327 329 331 331 332 332 332 333 332 324 319 321 317 312 313 314 314 314 314 314 313 313 313 314 314
333 329 323 316 313 313 315 315 315 315 315 315 316 317 317 317 319 320 322 325 327 327 326 326 326 326 326 325 326 326 325 325 326 325 323 321 321 320 318 316 314 312 313 314 314 315 315 311 309 310 310 310 310 312 313 315 317 320 324 327 329 330 331 331 332 332 332 332 333 330 327 323 315 311 313 313 313 313 314 314 313 314 313 313 313
333 330 324 317 313 313 315 315 315 315 315 315 316 316 316 317 318 320 321 323 324 325 324 323 322 321 320 320 320 319 318 318 318 318 316 314 312 311 310 309 308 309 311 313 315 316 313 310 309 310 311 310 310 311 313 315 318 321 324 326 327 329 329 330 330 330 330 330 331 331 328 322 314 311 312 312 312 313 313 313 313 313 313 313 313
334 330 325 318 313 313 314 315 316 315 315 316 316 317 317 317 318 319 320 322 323 323 321 320 318 316 315 314 314 313 312 312 311 310 310 309 309 308 308 308 309 310 312 314 316 314 312 310 310 310 311 310 310 311 313 315 318 320 323 325 328 329 330 330 330 331 330 330 329 327 325 320 314 312 312 312 312 312 312 312 313 313 313 313 313
333 331 325 319 314 312 314 315 315 315 316 316 317 317 317 317 317 319 321 322 322 321 318 316 314 313 312 311 311 310 309 309 308 308 308 308 308 308 308 309 310 311 313 314 315 312 310 311 310 310 310 310 310 310 311 312 316 319 322 326 329 330 330 330 330 331 331 331 330 328 327 321 313 311 312 312 311 312 312 312 312 312 312 313 313
333 331 325 320 314 312 314 316 316 316 316 318 319 319 318 317 317 319 322 323 321 318 315 313 312 311 311 310 309 309 309 309 308 308 308 309 308 309 309 310 312 312 313 314 312 310 311 311 310 311 310 310 310 310 310 311 313 317 321 325 328 328 329 329 329 330 329 330 329 328 328 323 317 313 311 312 312 311 312 312 312 311 312 312 312
335 332 327 321 315 313 313 315 316 316 317 318 319 319 319 318 317 320 322 322 318 315 314 313 312 311 311 310 310 309 309 309 309 309 308 308 309 309 310 311 312 312 311 311 310 310 311 311 311 311 310 310 310 310 310 311 311 315 320 324 326 327 328 328 329 329 327 327 326 325 327 326 322 314 310 311 311 311 312 312 312 311 312 312 312
339 334 327 321 317 313 313 314 315 316 317 317 318 319 320 320 319 321 322 321 317 316 315 314 313 312 311 310 310 310 309 309 309 309 309 308 308 309 310 312 312 311 310 310 309 310 311 311 312 311 311 311 310 310 310 311 311 313 317 321 324 326 327 328 329 329 328 328 327 327 328 328 323 314 310 310 310 311 311 312 312 312 312 311 311
341 335 328 323 319 315 314 314 314 315 316 317 317 318 321 323 322 321 322 322 320 318 316 314 314 312 312 312 311 310 310 310 310 309 309 309 309 309 310 311 313 312 310 310 310 310 311 311 312 311 311 311 311 311 310 310 311 311 312 317 324 326 327 328 329 329 329 329 329 328 328 328 324 315 310 310 310 310 310 312 312 312 312 311 311
340 334 329 325 322 319 317 315 315 315 316 318 318 320 323 325 325 322 321 322 322 320 316 315 314 314 313 312 312 312 312 312 311 311 311 310 309 309 309 310 312 313 312 312 311 311 311 311 312 312 312 311 311 311 311 311 311 311 311 315 321 325 327 328 328 327 326 326 326 325 326 327 323 315 313 311 310 310 310 312 312 312 312 311 311
338 334 331 327 325 323 321 319 318 316 316 318 321 323 323 325 326 323 321 322 323 320 316 314 314 314 314 313 313 313 313 313 313 313 313 313 313 311 310 309 310 312 313 314 313 313 312 312 312 312 312 312 312 312 312 312 312 312 312 314 318 322 326 329 330 329 328 329 328 327 328 327 321 315 314 314 313 312 312 313 314 314 313 312 311
336 333 332 329 329 327 326 323 320 318 316 317 321 324 325 325 325 324 323 323 325 321 315 315 314 314 314 314 314 314 315 315 314 314 314 314 314 313 313 312 311 310 311 312 314 315 315 315 315 314 314 314 314 314 314 314 314 314 314 315 317 321 328 330 331 331 331 332 332 330 331 328 325 320 316 315 316 316 316 317 317 317 316 314 312
335 334 333 331 331 330 329 327 325 323 320 319 321 324 326 324 323 325 324 323 324 322 316 314 314 315 315 314 315 317 317 315 316 317 318 318 317 316 315 314 314 312 311 311 311 312 315 316 317 317 317 316 317 316 316 316 316 316 316 316 316 319 324 325 328 330 330 331 331 330 330 329 330 326 318 316 317 317 318 319 319 319 319 316 314
336 335 334 333 333 331 330 330 329 327 324 323 322 323 323 322 323 325 324 324 323 319 315 313 314 315 315 316 317 320 322 320 320 322 326 328 327 326 324 321 320 317 316 314 312 311 311 312 314 316 316 316 316 316 318 318 319 321 321 320 319 317 320 323 327 330 329 330 330 329 330 330 331 327 320 319 319 318 319 319 320 319 320 318 316
336 336 335 335 334 332 332 331 330 329 326 325 325 325 324 322 322 323 324 323 320 317 315 314 314 317 319 320 321 324 327 326 327 328 330 333 332 332 331 330 329 326 323 322 319 316 315 313 311 312 313 314 314 316 320 324 325 327 327 325 323 323 325 326 328 330 330 331 331 330 331 331 330 327 323 322 322 321 320 319 319 320 320 319 317
339 339 339 338 336 334 335 334 334 333 330 328 326 326 325 324 321 321 323 321 321 323 322 319 318 323 326 326 327 329 330 329 331 333 332 333 333 333 332 333 333 332 331 330 327 325 325 324 318 314 311 312 318 321 324 328 329 329 330 330 328 329 331 330 329 331 332 331 331 331 331 331 330 329 325 323 323 323 323 321 320 321 322 320 317
342 342 342 341 338 338 338 338 338 337 336 333 328 325 326 327 324 320 322 323 326 328 329 326 322 325 330 331 331 332 332 332 333 334 333 333 334 334 333 334 334 333 332 332 331 331 332 331 329 324 317 317 324 327 326 329 330 330 331 332 332 332 332 331 331 332 332 332 332 331 331 331 331 331 329 326 324 323 324 324 323 323 323 322 318
343 343 343 342 342 342 341 340 340 339 338 336 332 329 328 328 323 320 324 327 329 329 327 325 324 328 331 333 333 334 335 333 333 333 334 335 335 335 334 334 335 334 334 334 333 333 334 334 333 332 328 325 328 330 330 330 330 330 330 331 332 332 332 332 333 333 333 333 332 331 331 331 332 332 331 330 328 325 325 324 324 323 323 324 320
343 343 343 343 343 343 342 341 339 338 336 334 331 329 329 326 320 321 327 329 330 330 325 324 331 334 332 334 334 334 335 334 333 333 334 336 335 335 335 335 336 335 335 335 334 334 335 335 335 334 333 331 330 330 331 331 330 330 330 329 330 332 333 333 333 333 333 333 332 332 331 331 331 331 331 331 331 329 327 325 324 322 322 325 323
343 343 343 342 342 342 340 338 336 336 335 332 331 331 331 328 325 328 331 331 333 333 329 330 334 333 332 334 334 333 335 335 335 334 334 335 335 334 334 336 336 336 336 336 336 335 335 335 335 335 334 333 331 330 331 331 331 331 332 331 330 331 332 333 333 332 332 333 332 331 331 331 331 331 331 332 332 332 330 327 325 323 322 326 326
342 342 341 341 341 340 338 335 335 336 335 333 333 334 333 332 332 333 333 334 335 335 333 331 330 330 333 335 334 334 335 335 335 334 334 334 335 335 335 337 337 337 337 337 337 336 336 336 336 335 334 334 333 332 331 330 331 331 332 332 332 332 331 331 331 330 331 332 332 332 331 331 331 330 331 331 332 332 332 330 328 327 325 326 328
341 341 340 340 339 338 337 336 336 336 335 333 333 335 334 334 333 334 335 335 334 333 332 330 330 333 336 336 335 335 335 335 335 335 335 335 335 336 336 336 336 337 337 337 337 336 336 336 336 336 335 334 334 334 332 331 332 332 332 332 333 333 332 331 332 331 331 331 331 331 331 331 331 331 331 331 332 332 332 332 331 331 328 326 328
341 340 339 339 337 337 336 335 335 335 334 333 333 335 334 333 333 335 335 332 332 332 333 334 335 336 336 337 336 335 335 335 335 334 335 334 335 336 337 336 336 336 336 336 336 334 334 334 335 335 335 335 334 334 333 332 333 332 332 332 333 333 332 332 333 333 332 331 331 331 332 332 332 332 332 332 332 332 332 332 332 332 330 327 327
339 338 338 337 336 337 336 334 334 334 333 333 334 334 333 332 333 335 333 330 333 336 337 337 337 336 336 336 336 335 335 334 334 334 335 335 335 336 337 336 335 335 334 334 333 332 331 331 333 333 333 334 334 334 334 333 333 333 333 332 333 333 332 332 332 333 333 332 332 332 332 332 333 333 333 332 332 332 332 332 332 332 331 328 327
338 337 337 336 336 336 334 332 332 334 334 334 334 333 331 330 332 334 333 334 337 336 336 337 336 336 335 335 335 335 335 334 334 334 334 335 335 335 336 336 335 334 334 332 331 331 331 331 333 332 331 332 334 334 333 333 333 333 333 333 332 333 333 333 333 333 333 333 333 332 333 333 333 333 333 332 332 332 332 331 332 332 332 330 328
337 337 336 336 335 333 330 330 332 334 335 335 333 331 332 332 334 335 336 336 336 335 336 336 336 336 336 334 333 334 335 334 334 333 333 333 333 334 335 335 334 334 334 332 331 331 332 332 332 332 332 332 333 333 333 333 333 333 332 333 333 332 333 333 333 334 334 334 333 333 333 333 333 333 332 333 332 332 332 331 331 331 331 331 330
336 336 335 333 330 330 329 330 334 335 336 335 331 332 335 337 337 337 336 336 335 335 336 336 336 336 335 333 331 333 334 333 331 328 328 329 329 331 334 334 333 333 334 333 331 331 332 331 331 331 331 331 331 331 332 331 331 332 332 331 332 331 331 332 332 333 333 333 332 332 332 332 332 332 332 332 333 333 332 332 331 331 331 331 331
336 335 333 328 327 331 332 332 334 335 335 334 333 335 337 337 337 336 335 335 336 335 335 336 336 335 334 333 333 334 335 335 334 331 331 332 333 334 335 335 333 333 333 333 331 331 332 331 331 330 330 330 330 330 329 329 329 331 331 331 331 331 330 330 331 332 332 332 331 331 331 332 332 332 332 333 333 333 332 332 332 332 331 330 331
335 332 329 327 330 333 333 333 334 335 335 334 335 336 337 336 336 336 335 335 335 334 334 336 336 335 334 334 335 335 335 335 335 335 336 336 335 336 336 335 333 333 333 333 332 332 332 332 332 331 330 330 329 328 328 329 329 330 330 330 331 330 329 329 330 331 331 330 330 330 330 331 331 332 332 333 333 333 332 332 332 331 330 329 329
334 331 331 331 332 334 334 335 335 335 335 335 336 337 336 336 336 336 335 334 334 333 334 334 334 333 333 333 333 333 333 332 330 332 335 335 335 335 334 334 333 333 333 333 333 333 333 332 332 332 330 330 329 328 328 328 329 329 329 328 329 330 329 330 330 330 331 330 331 331 331 330 331 331 332 333 333 332 332 332 332 331 331 330 329
335 332 334 334 334 335 334 335 334 334 335 336 337 337 336 336 336 335 333 333 332 332 332 332 331 331 332 331 330 330 331 330 330 332 335 334 334 334 334 334 333 333 333 332 332 333 332 331 331 331 331 331 331 330 329 328 329 330 329 328 329 330 329 330 331 331 331 331 331 331 331 330 331 332 332 333 333 332 332 333 332 331 331 331 331
336 334 335 336 335 335 334 334 334 334 334 335 336 336 336 335 334 332 331 332 331 330 332 331 331 331 330 330 329 330 331 331 333 335 335 334 334 334 334 334 334 334 333 332 332 332 331 331 331 331 331 331 331 331 331 330 330 330 329 328 328 329 330 331 332 332 331 332 331 331 331 331 332 332 331 332 331 332 332 332 332 331 331 331 331
336 335 336 336 335 335 334 334 334 334 334 335 335 334 335 333 332 332 332 332 329 329 331 329 328 329 329 330 331 332 333 333 335 336 335 335 334 334 334 334 333 334 333 332 332 332 332 332 332 331 331 331 331 331 331 330 330 330 329 328 327 328 330 331 331 332 332 332 331 331 331 332 332 331 330 331 330 330 331 331 331 331 331 331 331
337 336 336 336 335 335 335 335 334 334 334 334 334 333 333 332 332 333 332 331 330 330 331 328 326 327 329 331 332 333 334 335 336 335 335 335 334 334 334 334 334 334 333 332 332 332 332 332 332 331 331 331 331 330 330 330 329 328 328 327 327 326 329 331 331 331 331 331 331 331 331 331 331 330 330 330 330 330 329 330 330 331 331 331 331
338 337 336 336 335 335 336 335 334 334 333 333 332 331 331 330 331 332 331 330 330 332 331 329 329 330 331 332 332 333 334 335 335 335 335 334 334 334 334 334 334 334 333 332 332 332 332 332 332 332 331 331 331 330 330 329 328 328 328 327 327 326 328 331 332 331 329 329 331 331 331 330 330 329 329 329 328 329 329 329 329 329 330 331 331
337 337 336 336 336 336 336 335 334 333 332 332 331 330 329 329 329 330 330 330 332 334 333 333 333 333 333 333 333 334 334 334 333 334 334 334 333 333 333 333 333 333 332 332 331 331 331 331 330 331 331 331 330 329 329 328 327 328 327 326 326 327 326 327 330 330 327 329 331 330 329 330 329 329 329 328 328 328 329 328 328 328 329 330 330
337 336 336 336 336 335 335 333 333 332 331 331 331 330 329 330 331 332 332 333 334 335 335 334 334 334 334 333 333 333 332 332 332 332 332 332 332 332 332 332 331 331 331 331 331 330 329 328 327 328 328 328 328 328 327 327 327 326 326 326 327 327 326 325 324 324 324 327 329 328 327 328 328 329 329 328 328 326 326 326 326 326 326 327 328
336 336 336 336 335 335 333 332 332 332 330 330 330 331 331 331 333 333 333 333 333 333 333 333 332 332 331 330 330 330 330 329 329 329 330 329 330 330 330 330 329 328 328 327 328 327 326 324 323 323 323 323 322 321 322 325 327 326 326 326 325 325 325 324 323 322 322 324 325 325 325 325 326 327 328 328 327 326 326 325 324 323 323 325 328
337 337 336 335 335 334 334 333 333 332 330 330 330 332 332 332 333 332 331 332 332 332 332 331 331 329 328 328 328 328 328 328 328 328 328 327 327 327 327 326 324 323 322 322 322 321 320 319 317 317 317 317 316 314 316 319 322 324 325 325 323 323 323 323 323 323 321 320 321 321 321 322 323 323 324 325 326 326 325 324 322 322 323 324 326
337 336 335 335 334 334 334 334 333 332 332 332 332 332 332 332 332 332 331 332 332 331 330 330 329 328 327 327 327 327 327 327 328 327 326 324 323 322 321 320 318 317 316 315 315 315 314 313 312 312 312 312 312 312 312 312 314 316 318 320 320 320 320 321 320 320 320 319 317 317 316 316 316 316 317 318 320 320 320 321 320 320 321 321 322
336 335 335 335 334 334 334 333 333 333 333 333 332 332 332 332 332 333 333 332 331 331 330 330 328 327 326 326 326 326 326 326 326 324 322 319 317 316 316 315 314 314 313 312 312 312 311 311 310 310 310 310 310 310 310 309 310 310 311 313 315 316 317 317 316 314 314 314 312 310 311 310 309 308 309 310 310 310 313 317 317 316 317 317 317
335 335 335 334 334 334 333 333 334 333 333 333 333 333 333 332 333 333 332 332 331 330 329 329 327 326 325 324 324 324 323 322 321 319 316 315 314 314 313 313 312 312 311 311 311 310 310 309 309 308 308 308 307 307 307 306 307 307 308 308 309 310 310 310 309 308 308 308 306 305 305 304 304 303 303 303 303 303 305 311 314 314 312 311 313
335 335 335 334 334 334 333 333 333 333 333 332 332 333 332 332 332 332 331 330 330 328 327 326 325 324 323 322 322 321 319 318 316 314 314 313 312 312 312 311 310 310 309 309 308 308 307 306 305 305 304 304 303 303 303 303 303 304 304 304 305 305 303 305 306 306 306 306 305 303 302 301 301 301 300 300 300 300 300 304 308 308 307 308 310
335 335 335 334 334 333 333 333 332 332 332 332 332 332 331 332 331 330 330 328 328 326 325 324 323 322 321 319 319 317 314 314 313 312 312 311 310 310 309 309 308 307 307 306 305 304 303 302 301 300 300 300 299 299 299 300 301 302 302 303 305 303 301 304 306 305 306 306 305 304 301 298 299 299 299 299 298 298 299 300 301 302 303 303 303
Wind_Speed
16 14 13 12 11 10 10 11 13 14 15 15 16 15 15 15 15 15 14 15 15 15 14 14 14 14 14 14 14 13 13 13 13 13 14 13 13 13 13 13 13 12 11 11 10 11 11 11 11 10 10 10 11 12 13 14 15 16 17 18 18 19 19 19 19 18 17 16 15 15 15 14 13 12 12 12 13 13 13 12 12 12 11 12 13
18 17 14 13 12 11 11 12 14 15 15 15 16 15 15 15 15 15 15 15 14 14 14 14 14 14 14 13 13 13 12 12 12 13 13 13 13 13 13 12 11 11 10 10 10 11 12 11 11 11 11 12 12 13 14 16 18 21 21 22 22 22 22 21 19 18 17 15 14 14 13 13 12 12 12 11 12 12 12 11 12 11 11 12 13
18 17 16 15 13 13 12 13 15 15 15 15 15 15 16 15 15 15 15 15 14 14 14 14 14 14 14 13 13 13 12 12 12 13 13 13 12 12 11 11 10 10 10 10 10 11 12 11 11 12 12 13 13 14 16 19 22 25 25 24 24 23 21 20 19 18 17 16 15 14 12 11 11 11 11 11 11 11 11 11 11 11 11 12 12
18 17 17 16 15 14 13 13 15 15 15 15 15 15 15 15 15 15 14 14 15 15 15 15 14 13 13 13 13 13 13 12 12 12 13 13 12 11 10 10 10 10 10 10 10 11 12 11 11 13 13 13 14 15 19 22 25 26 26 25 24 22 21 20 19 17 17 15 15 14 13 11 10 10 10 10 10 10 10 10 10 10 11 11 12
17 18 18 18 17 15 15 14 15 15 15 15 15 16 15 15 15 14 14 14 15 15 15 14 14 13 13 13 13 12 12 12 12 12 12 12 11 10 10 9 9 9 8 8 9 10 11 10 12 14 15 15 16 17 21 24 25 26 25 24 23 23 22 21 19 18 16 14 13 13 13 12 9 9 9 9 9 9 8 9 9 10 10 10 11
16 19 19 19 18 17 16 15 15 15 15 15 15 15 15 15 15 14 14 15 15 14 14 14 13 13 13 12 12 12 12 11 11 11 11 10 10 9 9 8 7 7 7 7 8 9 9 10 13 14 16 17 19 20 22 24 25 25 24 23 23 22 22 21 20 18 15 12 11 11 12 11 9 8 8 8 8 8 8 8 9 9 10 10 11
16 19 19 19 19 18 17 16 16 15 15 15 15 15 15 15 15 15 15 15 14 14 14 14 13 13 12 11 11 11 11 10 9 9 9 9 8 8 7 6 6 6 5 6 7 8 9 10 13 15 17 19 20 21 22 23 23 23 22 22 22 23 23 22 20 17 13 10 7 8 11 11 10 8 7 7 7 8 8 8 9 10 10 11 11
19 20 19 19 19 19 18 17 16 16 15 15 16 15 15 15 15 15 15 15 14 14 14 13 13 12 11 10 10 9 9 9 8 8 7 6 6 5 4 4 4 4 4 5 6 8 9 11 13 16 17 19 19 20 20 21 21 21 21 22 23 23 22 20 17 14 11 7 4 7 10 10 10 8 7 7 7 7 8 9 9 9 10 10 11
21 19 19 19 19 19 18 18 16 16 15 15 16 16 15 15 15 15 15 15 14 13 13 13 12 11 10 9 9 8 8 7 6 6 5 5 4 3 2 3 4 4 4 5 7 9 10 12 14 16 17 18 18 19 19 20 20 21 22 22 21 21 20 18 15 12 9 6 5 6 8 10 10 9 7 7 7 7 7 8 8 9 9 10 10
20 19 19 19 19 20 19 18 17 16 16 16 16 16 16 15 15 15 15 14 14 13 13 12 11 10 10 9 8 7 7 6 6 5 4 4 4 4 3 4 5 5 5 6 8 10 11 12 14 15 16 17 17 18 18 19 20 21 21 21 20 19 19 18 15 12 8 6 6 7 7 9 10 8 8 8 8 8 8 8 8 8 9 9 10
21 20 19 19 20 20 19 18 17 16 16 16 16 16 16 16 15 15 15 14 14 13 12 11 10 10 9 8 7 7 7 7 6 5 5 5 5 5 5 6 7 6 7 8 10 11 12 13 14 15 15 15 16 16 17 18 18 19 20 19 19 18 18 16 14 12 7 6 5 6 5 8 9 8 8 8 8 8 8 8 8 8 9 9 10
22 20 19 19 20 20 19 18 17 16 16 16 16 16 16 16 16 16 15 14 14 12 11 11 10 9 9 8 7 7 7 7 7 7 6 7 7 7 7 7 7 7 8 10 11 12 13 13 14 14 14 14 14 14 14 14 15 16 17 17 17 17 16 15 14 11 5 4 4 6 5 8 10 9 9 9 8 9 9 9 9 8 9 10 10
21 19 19 19 20 20 19 18 17 17 16 16 16 16 16 15 16 16 15 14 13 12 11 10 10 9 9 8 8 8 8 8 8 7 7 8 8 8 8 8 8 8 10 11 12 12 13 13 14 14 13 13 13 13 12 12 12 13 14 15 15 15 14 13 12 9 4 3 6 7 6 8 10 10 10 9 9 9 9 9 9 9 10 10 10
20 19 18 18 20 19 19 18 18 17 16 16 16 16 15 15 15 15 15 13 12 11 11 10 10 10 9 9 9 9 8 9 9 8 8 8 9 9 8 8 8 9 10 11 12 12 13 13 13 13 12 12 12 11 11 11 11 11 12 13 13 12 12 11 11 8 3 2 7 8 8 9 11 12 12 10 10 10 10 9 9 10 10 10 11
18 20 19 19 20 19 19 17 17 17 16 16 15 15 15 15 14 15 14 13 12 11 10 10 10 10 9 9 9 9 9 9 9 9 9 8 9 9 8 7 8 8 10 11 12 12 12 12 12 11 11 11 11 10 10 9 10 10 10 9 10 10 10 10 10 7 2 2 7 9 9 9 12 14 12 12 11 11 11 10 10 10 11 10 11
16 20 20 19 19 20 19 17 17 16 16 16 15 15 14 14 14 14 13 12 11 10 9 9 9 10 9 9 9 9 9 10 10 9 9 9 9 9 8 7 7 8 9 10 10 11 10 11 10 10 10 9 10 9 9 8 8 7 7 7 8 9 9 9 9 5 1 2 7 9 9 11 14 15 13 12 12 12 12 11 11 11 11 11 12
17 21 21 20 19 20 19 18 17 16 16 16 15 15 14 14 13 13 12 11 10 9 9 9 9 9 9 9 8 9 10 10 10 9 9 9 9 10 9 8 6 6 6 7 8 8 9 9 9 8 8 8 8 8 8 7 6 6 5 6 7 8 7 7 8 4 1 3 8 10 11 13 15 16 13 13 13 14 13 12 12 12 12 12 12
19 22 21 20 20 19 19 19 18 17 17 16 15 14 14 14 12 12 11 10 9 8 8 9 9 9 9 8 8 9 10 10 10 9 9 9 9 9 10 9 7 5 5 5 5 5 6 6 6 6 6 6 6 7 6 6 6 5 5 5 6 6 6 6 6 2 1 3 8 11 12 14 14 15 14 13 13 14 14 14 14 14 14 13 12
23 24 21 20 20 19 19 19 18 17 16 15 15 14 14 13 12 11 10 9 8 7 8 8 8 9 9 8 9 9 10 10 10 10 9 9 8 8 9 9 8 7 5 4 3 3 3 3 4 4 4 4 4 5 5 5 5 5 4 4 3 4 7 7 5 1 2 4 9 12 14 14 14 16 15 13 13 13 14 14 15 15 15 14 13
25 24 21 20 19 19 19 18 17 16 15 15 14 14 13 12 11 10 9 8 8 7 7 7 8 9 9 8 9 9 9 9 10 10 10 9 7 7 8 8 8 8 7 5 4 3 2 2 2 2 2 2 2 3 4 5 5 5 4 3 2 2 3 4 3 1 3 6 9 12 14 15 16 17 15 13 13 14 14 14 15 15 15 14 13
26 23 21 20 19 18 18 17 17 15 15 15 14 14 12 12 10 9 9 8 8 8 7 8 8 8 8 8 8 8 9 10 8 8 10 9 8 8 8 8 8 8 7 7 6 5 4 2 1 1 1 1 1 2 4 5 6 5 4 3 1 0 1 0 1 2 4 6 9 11 14 16 16 16 14 14 14 14 14 14 15 16 15 15 14
25 22 19 17 18 18 17 16 15 14 14 14 13 12 12 11 10 10 10 10 10 10 9 9 8 7 7 7 6 6 9 10 8 7 9 9 8 9 8 8 8 8 7 7 7 6 5 4 2 0 1 1 2 3 5 5 5 5 6 4 3 2 2 1 1 3 6 8 10 12 15 16 16 16 14 15 15 14 14 14 15 15 15 15 14
24 22 18 16 17 18 16 16 14 13 13 12 12 11 11 11 11 10 10 11 12 11 10 9 8 8 6 5 5 6 8 9 8 6 8 8 8 8 8 7 7 7 6 7 7 7 6 6 5 3 1 1 1 3 4 3 2 4 7 6 4 3 3 2 2 5 8 10 12 13 15 16 17 17 15 15 16 15 15 15 15 15 15 15 14
26 24 19 17 18 17 16 15 14 13 12 11 11 10 10 10 11 11 11 12 12 10 8 8 9 8 6 5 6 6 6 7 6 5 6 6 6 7 7 7 7 7 6 6 6 6 6 7 7 6 4 3 1 0 2 1 1 3 6 7 5 4 3 3 4 6 10 12 13 13 14 17 17 17 16 17 17 16 16 15 15 15 15 14 14
29 27 22 20 19 19 17 16 15 13 11 10 10 9 10 10 10 11 11 11 11 8 7 8 8 5 4 4 4 4 3 3 4 4 4 4 5 6 6 6 6 6 5 5 5 5 6 7 7 7 7 6 5 5 4 4 5 5 5 6 7 5 4 3 2 6 10 11 12 13 15 17 17 17 17 18 17 17 17 16 15 15 16 15 14
30 28 25 23 21 20 19 17 15 14 12 10 9 9 10 11 12 12 10 10 10 7 6 8 5 1 0 1 1 2 1 1 3 2 2 2 4 4 4 5 4 5 5 4 4 5 5 5 4 4 4 5 5 5 7 8 9 9 8 8 9 9 7 5 5 7 10 12 13 14 15 16 16 17 18 18 17 17 18 17 16 16 17 17 14
26 26 23 21 19 17 17 17 16 15 12 10 10 10 9 10 11 11 9 8 8 6 4 4 3 6 4 2 2 1 1 0 1 1 1 2 3 3 4 4 4 5 5 4 5 5 6 6 5 3 2 2 2 3 4 7 10 11 10 10 11 12 12 11 10 10 12 14 14 15 16 16 16 18 18 18 18 18 18 17 16 17 18 17 14
21 22 21 21 19 17 18 18 15 12 10 10 10 8 7 7 6 8 8 7 5 4 5 5 6 7 4 2 1 1 1 2 1 1 2 2 3 3 3 3 3 4 4 4 6 6 6 7 8 6 5 5 4 5 6 6 8 9 9 10 11 12 13 13 12 12 13 14 15 16 16 16 17 17 18 19 19 19 18 17 17 18 19 17 15
18 19 19 20 18 17 19 17 12 10 10 11 9 8 8 6 6 8 7 6 8 7 7 7 5 4 2 1 1 1 2 2 3 2 2 1 1 1 1 2 2 2 3 4 5 4 4 6 8 7 7 7 7 8 9 10 10 10 11 12 12 11 11 10 9 11 12 14 16 17 16 16 17 18 19 19 19 20 19 18 18 18 18 17 16
18 17 15 17 18 18 19 18 15 12 14 14 11 11 11 10 10 10 8 9 10 8 7 5 3 2 1 0 1 1 2 2 2 2 2 1 1 1 1 2 2 2 2 3 2 3 4 6 7 7 8 8 8 9 9 10 10 10 11 11 11 11 10 8 9 11 13 14 16 16 16 17 17 18 19 19 18 19 20 20 19 18 17 16 16
19 18 17 16 17 20 20 17 17 16 17 17 14 14 13 13 13 11 10 9 9 9 7 5 3 1 0 1 1 1 2 2 2 2 2 1 2 1 1 1 1 1 1 2 4 5 5 5 5 6 6 7 8 8 9 10 10 10 10 10 10 9 10 10 11 12 14 14 15 15 16 17 18 18 18 18 19 19 20 20 20 19 18 16 16
21 21 20 18 18 19 18 16 19 20 19 18 17 16 13 13 14 11 10 10 9 8 7 6 4 2 1 1 1 0 0 1 2 2 2 1 1 1 2 1 1 2 2 3 4 6 6 6 6 6 6 5 6 7 8 9 10 10 11 12 11 10 10 12 13 13 14 16 17 17 17 18 19 19 19 18 18 18 19 19 19 20 19 18 17
22 21 19 17 17 17 17 19 22 21 18 18 17 15 13 14 14 11 10 9 8 8 7 6 5 3 2 2 1 1 1 2 2 3 2 0 1 2 3 2 3 3 4 5 5 5 5 6 6 7 7 7 7 7 8 8 9 9 10 10 11 10 10 12 13 14 15 16 18 19 19 19 20 20 20 18 18 17 17 18 18 19 19 19 18
21 19 16 15 16 18 19 22 23 20 18 18 16 14 14 14 13 12 10 10 8 7 7 6 5 4 4 3 2 2 3 2 1 1 1 2 1 2 3 3 4 4 4 5 5 5 5 6 6 7 8 8 8 8 8 9 9 10 9 9 9 10 11 11 12 13 14 14 16 18 18 19 20 20 20 19 17 17 17 17 18 18 18 19 19
19 17 15 15 19 20 20 20 20 18 18 17 15 14 14 13 12 11 10 10 8 7 7 6 5 6 6 4 3 1 1 1 1 2 1 0 1 2 2 3 4 4 4 5 5 5 5 6 6 7 8 8 8 9 9 10 10 10 11 11 11 11 12 12 12 12 12 13 13 15 16 17 17 19 20 19 17 17 17 17 16 16 17 18 18
17 17 17 19 21 21 19 18 19 18 17 16 15 14 12 12 11 10 10 10 9 7 7 6 5 6 5 3 3 2 2 2 2 2 1 1 1 3 3 4 4 4 5 5 5 4 5 6 7 7 8 8 9 9 9 10 10 10 10 11 12 12 13 12 12 12 12 12 12 13 14 15 15 17 18 18 16 16 16 16 15 15 16 17 18
18 19 20 22 21 21 19 18 18 17 17 16 15 13 12 12 11 11 10 10 9 8 7 7 5 5 4 2 2 2 2 1 1 2 2 3 3 4 4 4 3 3 4 5 5 4 5 6 7 7 8 9 10 9 9 9 8 8 9 10 10 10 11 11 11 11 10 10 10 12 14 14 14 16 17 17 17 16 16 16 16 16 16 17 18
22 22 21 21 21 20 19 18 17 17 17 16 14 13 12 13 13 12 11 10 9 7 7 6 5 5 4 2 2 0 1 1 2 0 4 6 4 4 5 4 4 4 4 5 5 4 6 6 6 7 8 9 10 10 10 9 8 8 8 8 7 8 9 9 8 8 8 9 9 10 11 13 14 15 16 17 17 17 18 17 17 17 16 17 17
24 23 21 21 21 20 19 18 17 17 17 16 15 14 14 14 14 13 12 11 9 7 6 6 5 4 4 4 3 3 2 0 0 3 6 7 6 5 5 5 5 5 5 5 5 5 5 5 5 6 7 8 9 10 11 10 10 10 9 8 7 7 7 6 6 6 7 8 10 11 12 13 14 15 16 16 17 17 17 17 18 18 18 18 18
24 24 22 21 21 20 20 19 17 18 17 17 16 16 16 14 14 13 12 12 10 8 7 7 6 5 5 6 6 4 2 2 4 6 7 8 7 6 5 5 5 6 6 6 6 6 5 5 6 6 6 7 9 10 11 11 11 10 9 8 7 7 4 2 3 4 5 7 10 11 12 13 14 16 16 17 18 17 17 18 20 20 20 20 19
24 24 23 21 21 20 20 19 18 18 18 18 17 16 16 15 14 12 12 12 11 11 10 9 8 8 7 5 4 3 3 5 6 7 8 8 8 8 6 6 6 7 8 7 6 6 6 6 6 6 6 7 10 11 10 11 12 11 9 6 6 5 3 2 2 2 4 6 7 8 10 11 13 16 16 17 18 17 17 18 20 21 21 21 20
25 24 22 22 21 20 20 20 19 19 20 19 17 16 16 15 14 13 12 11 12 11 10 8 7 7 6 5 4 5 7 8 9 9 9 9 10 10 8 7 8 8 8 8 8 7 7 7 7 6 6 7 10 12 12 12 12 12 12 10 7 3 1 3 2 2 6 5 3 5 8 10 11 12 13 16 18 18 19 20 21 22 21 20 20
24 23 22 22 22 21 20 20 20 20 19 18 17 16 15 15 13 12 10 11 11 10 8 7 6 5 5 6 7 9 10 11 12 12 11 12 12 12 11 9 10 10 9 9 10 10 10 10 10 9 9 8 9 12 12 13 13 12 11 11 9 6 4 5 5 3 7 6 3 4 6 6 7 8 10 13 15 16 17 19 21 22 22 22 21
24 23 23 23 22 21 21 22 22 21 19 18 17 15 15 14 13 11 10 10 11 9 7 6 5 6 7 9 10 12 13 14 14 14 14 14 14 14 14 12 13 13 13 12 12 13 13 13 12 12 12 11 11 13 11 12 13 11 9 8 7 7 8 11 12 11 9 7 6 7 8 8 7 7 7 9 12 14 15 16 19 22 23 24 24
25 24 23 22 22 22 23 23 23 21 20 18 17 15 15 16 16 14 13 12 11 8 7 6 7 8 10 11 13 13 14 14 15 14 14 15 15 15 15 14 14 14 14 13 12 13 13 12 11 11 11 11 10 10 8 9 10 8 8 7 5 7 9 14 18 17 12 8 11 12 11 11 10 9 9 8 7 10 13 14 18 21 22 23 23
26 25 23 23 24 24 23 23 22 21 19 18 16 15 15 15 14 13 12 11 9 7 5 6 8 9 11 11 12 13 13 14 15 14 14 14 13 13 13 13 12 11 9 8 9 9 8 8 7 7 7 7 7 7 5 4 5 4 3 3 3 4 8 11 13 16 18 17 16 16 17 17 16 15 15 13 11 11 12 14 18 21 20 19 19
26 25 25 24 25 24 23 23 22 20 19 18 16 15 15 14 13 12 11 9 6 5 4 7 9 10 12 11 10 11 13 13 13 13 12 11 9 8 8 8 7 6 4 3 3 3 3 4 5 5 5 5 6 6 6 6 5 3 2 1 3 2 2 6 8 13 20 22 20 19 19 19 18 17 17 16 16 15 15 13 17 18 17 16 15
25 26 26 25 25 24 22 21 20 20 19 18 16 15 15 14 14 12 10 8 5 4 5 8 11 14 14 11 10 10 11 12 12 11 10 8 6 4 5 5 3 2 2 1 1 2 3 4 5 5 6 6 6 6 6 7 6 6 5 3 2 2 0 3 6 8 11 17 22 21 18 17 16 16 17 17 16 16 14 12 14 16 16 16 14
25 26 26 26 24 23 22 20 20 19 18 17 17 16 14 13 13 11 9 7 6 5 7 10 13 14 12 11 11 9 8 10 9 8 7 5 4 4 4 4 3 2 1 1 2 2 2 2 3 3 4 5 5 5 5 6 7 7 7 6 6 5 4 6 8 9 9 11 18 21 21 20 17 16 17 17 17 16 13 10 13 16 17 18 17
25 27 27 26 25 24 23 22 20 20 19 18 17 16 14 12 11 9 7 7 7 7 9 10 10 10 8 8 10 7 7 8 7 7 7 6 6 5 5 5 4 3 3 2 2 1 1 1 1 2 3 3 4 5 5 6 6 6 6 7 8 9 9 11 14 15 14 13 15 19 22 22 21 21 20 19 18 18 15 11 13 16 18 19 20
26 27 27 26 25 24 24 23 21 20 19 18 16 15 13 11 9 8 8 8 8 9 9 8 6 5 4 5 7 7 8 9 9 8 8 7 6 6 6 6 5 4 4 3 3 2 2 2 2 3 4 5 6 6 7 7 6 4 5 7 10 11 11 12 14 15 15 15 15 17 19 20 21 23 23 22 20 19 18 16 15 17 19 20 21
Wind_Direction
175 167 166 156 151 150 147 134 125 122 121 123 124 125 124 123 120 118 115 113 112 112 110 107 103 99 95 92 90 91 93 94 93 91 89 87 88 89 87 85 85 81 74 69 67 66 59 55 52 52 59 68 78 87 92 92 96 102 108 109 108 108 109 108 104 102 101 101 99 97 97 93 90 87 82 77 74 72 68 62 56 50 41 38 36
170 164 165 156 154 150 147 137 127 124 123 125 126 128 126 124 122 119 118 115 115 114 111 108 105 101 98 95 93 92 94 96 95 94 90 89 90 90 89 87 83 74 69 67 64 60 51 51 54 56 64 75 85 92 95 97 101 102 105 106 106 107 107 106 104 102 96 91 88 87 91 94 93 88 83 77 71 65 61 56 50 45 39 37 34
172 164 163 156 153 150 147 139 129 126 126 128 128 129 127 126 126 123 120 118 116 114 112 111 108 105 102 98 96 94 95 97 97 96 92 91 92 92 91 85 77 72 70 65 60 50 40 49 60 64 71 81 91 97 98 102 105 104 103 103 103 103 103 102 100 98 92 88 87 83 80 84 89 86 79 72 65 59 54 49 45 40 37 35 31
179 168 164 156 152 150 146 140 131 129 129 130 131 130 130 131 129 125 123 120 117 115 114 112 112 108 105 102 99 97 96 98 99 98 96 94 94 93 89 82 75 70 67 62 56 40 34 53 68 70 77 84 94 100 102 106 108 105 103 102 100 98 96 94 91 90 89 89 89 84 76 72 73 75 70 63 55 50 47 43 40 37 36 31 26
181 173 167 156 152 148 144 140 133 132 132 132 133 133 133 134 131 127 124 121 119 117 116 114 113 111 107 105 101 100 98 99 100 99 98 98 97 94 89 85 79 70 68 63 49 32 35 62 74 77 83 86 95 103 107 110 109 107 105 103 101 97 93 88 84 81 81 84 84 83 78 66 57 61 59 55 50 47 48 46 38 33 32 25 20
179 172 163 155 151 147 143 140 137 135 134 134 135 136 136 135 132 128 125 123 121 119 118 115 113 112 109 107 104 103 101 100 100 100 100 101 100 98 96 92 84 75 70 59 39 33 46 73 81 84 89 90 98 104 109 111 110 109 108 105 102 96 91 86 81 76 71 68 71 79 75 58 45 51 52 48 45 44 43 39 32 26 25 19 15
180 168 159 154 150 146 143 140 139 137 135 137 138 139 138 136 133 128 126 124 124 122 118 115 113 111 110 109 108 107 105 102 101 103 103 104 103 103 103 98 89 76 62 43 30 42 65 83 88 92 95 95 99 106 110 111 111 110 108 105 100 94 89 85 81 78 75 67 65 71 65 45 29 37 44 40 36 37 33 25 25 20 16 14 11
175 165 159 154 149 145 142 141 140 138 138 139 141 141 139 138 133 129 128 126 125 124 119 115 114 112 111 111 110 110 108 106 105 105 105 105 103 102 98 91 78 60 49 40 43 65 83 90 94 99 100 98 99 105 111 114 113 110 107 103 98 95 90 87 83 79 78 74 63 52 49 33 18 22 29 28 25 28 26 18 19 15 11 8 3
170 163 159 154 148 144 142 142 142 140 141 142 143 141 139 138 135 133 130 127 126 124 120 117 117 116 115 114 114 114 111 110 109 106 104 102 97 91 73 59 61 62 68 68 71 85 94 95 100 104 104 101 100 103 109 114 114 110 107 103 99 96 93 89 84 78 70 52 24 12 17 13 10 13 13 10 8 11 14 14 12 7 4 1 353
170 162 157 154 147 144 144 143 143 143 143 144 143 140 138 137 136 135 131 128 128 126 124 123 122 119 118 118 117 116 114 112 109 106 99 94 89 81 73 69 77 84 92 91 89 96 99 99 104 108 106 104 102 102 106 110 113 112 109 104 100 96 94 91 85 79 65 46 9 334 339 356 2 2 2 358 354 355 359 3 0 356 355 353 345
170 161 155 152 148 145 145 144 144 144 144 144 142 140 138 137 135 135 133 132 132 130 129 126 123 120 118 116 115 113 110 108 105 101 97 92 88 83 82 84 90 98 101 101 100 102 102 102 107 109 108 107 105 104 105 109 111 111 109 104 100 97 95 93 90 84 72 62 11 332 339 350 352 350 350 350 345 344 346 350 350 349 345 345 343
165 158 156 152 147 145 145 144 145 145 144 143 142 141 138 137 135 134 135 135 135 132 130 127 124 121 117 114 112 110 106 103 101 98 97 93 87 85 87 90 95 100 103 105 107 107 107 106 109 110 110 109 107 106 106 108 110 111 110 106 104 101 100 98 94 87 71 54 350 340 350 342 349 344 340 342 338 336 335 337 340 341 339 341 342
161 157 157 152 146 145 144 144 145 146 145 144 143 140 139 138 136 135 136 137 134 132 130 126 122 118 115 113 111 108 105 101 99 97 96 93 87 84 89 95 96 99 105 109 112 112 111 110 110 111 110 110 108 107 106 105 108 112 114 110 108 106 103 102 96 91 67 13 323 330 342 335 344 341 336 335 331 330 325 328 331 331 334 339 338
162 161 158 153 146 143 144 146 147 147 146 145 144 141 141 139 139 137 136 136 133 131 128 124 120 118 115 112 111 107 103 99 96 95 93 92 87 83 87 96 97 100 108 113 116 116 114 113 112 112 111 109 106 105 104 102 103 109 113 111 110 107 102 100 97 100 92 356 309 321 332 330 339 337 335 332 329 326 320 324 323 324 333 337 337
167 165 160 155 146 144 146 148 148 147 147 145 144 143 141 139 139 140 137 135 132 131 128 125 121 117 116 113 112 106 100 96 90 87 85 87 88 85 87 93 98 101 110 116 119 119 118 117 115 114 112 109 106 103 102 102 104 108 113 111 109 108 106 105 100 106 128 316 310 325 329 328 337 337 335 331 330 325 320 323 320 321 331 335 337
172 167 161 157 148 147 147 149 149 147 147 145 145 143 141 139 139 142 140 137 133 133 132 129 124 118 117 115 113 109 101 96 88 85 80 80 85 87 87 91 98 101 110 117 122 123 123 122 120 118 114 111 107 104 103 102 106 110 115 117 118 118 117 114 105 107 169 304 309 317 321 326 334 337 339 333 331 327 323 324 321 322 328 332 335
172 168 163 158 152 149 148 148 148 147 147 146 147 145 142 142 142 145 143 139 136 136 138 132 128 123 120 117 112 105 97 94 91 89 84 78 80 84 89 91 96 101 107 114 120 125 127 126 125 123 119 116 112 108 106 104 106 108 115 123 132 130 124 115 105 110 241 305 306 307 319 329 333 338 342 338 334 330 327 325 324 324 326 329 331
170 168 165 161 155 151 150 148 149 149 149 149 148 147 146 146 145 146 144 140 138 137 139 132 130 126 122 118 109 101 96 95 94 91 86 79 74 78 85 89 93 98 105 109 113 118 123 127 128 128 125 121 117 113 110 107 101 99 102 117 135 131 119 103 101 142 257 321 315 317 324 329 334 341 344 343 337 330 330 327 326 327 326 328 328
168 169 167 164 160 155 153 149 150 150 150 150 147 149 151 151 148 147 145 140 137 136 134 127 128 129 126 121 110 101 96 95 91 86 81 75 72 72 77 82 88 92 95 99 103 109 110 115 119 125 129 129 125 118 110 103 93 86 83 98 120 119 117 102 95 175 333 332 315 320 323 324 330 337 342 342 339 333 332 330 329 329 327 328 327
168 170 169 167 163 158 155 151 152 150 150 150 148 150 152 154 152 151 146 139 139 138 133 126 125 127 127 121 108 96 93 91 82 79 76 70 69 70 70 71 78 85 89 86 84 89 98 104 109 115 125 134 133 121 113 103 89 82 78 81 109 131 134 111 98 33 1 332 310 313 315 318 322 328 336 339 338 335 333 332 330 329 329 328 325
169 171 172 170 162 158 157 153 153 151 152 152 150 150 153 158 156 153 146 143 142 136 129 122 120 120 118 117 111 95 86 82 75 71 70 67 63 66 67 64 63 69 76 79 77 75 78 85 106 162 189 193 175 134 123 111 95 75 56 48 53 44 335 99 149 1 349 323 312 310 311 315 320 325 332 336 336 333 331 330 329 329 330 329 325
167 169 172 169 159 157 157 154 153 151 154 153 151 148 151 156 154 150 148 144 133 123 120 118 115 110 107 115 117 100 81 79 76 67 65 62 58 60 60 60 59 56 64 71 70 71 70 68 67 150 225 242 223 168 141 115 100 71 34 20 15 5 7 31 111 9 339 315 312 310 309 312 317 323 327 331 333 333 332 328 327 329 330 329 325
161 166 166 161 158 159 158 157 153 148 149 148 150 148 147 151 151 151 148 139 126 118 116 113 113 106 104 103 92 83 74 71 69 63 62 58 57 60 56 59 59 54 64 72 66 65 66 64 56 36 4 315 217 173 168 145 97 66 31 7 358 352 339 339 14 358 325 311 310 307 307 308 313 318 321 325 326 330 334 330 328 329 331 330 324
158 166 164 157 160 161 158 154 146 140 141 141 145 144 148 151 150 148 143 135 126 122 116 117 121 110 96 80 69 67 58 55 59 59 59 57 60 61 60 65 68 61 68 77 68 61 65 64 54 45 44 35 15 330 214 232 352 47 31 2 343 336 331 348 12 338 311 305 304 303 304 306 310 314 318 321 321 324 330 331 329 329 330 330 325
162 168 166 162 161 159 156 149 136 129 127 131 137 142 153 151 147 144 137 132 126 126 130 127 121 98 72 64 69 74 52 42 58 64 60 54 54 52 58 68 72 67 69 78 71 60 63 67 58 52 52 46 30 9 346 333 342 359 2 339 319 312 321 330 328 302 297 296 296 298 300 304 308 311 314 317 318 320 324 327 328 329 328 329 326
169 170 166 165 164 161 157 143 122 116 114 117 122 127 142 137 132 134 129 126 122 124 130 119 113 183 242 72 116 115 149 68 47 61 67 35 36 36 44 60 69 67 65 68 66 53 44 49 50 47 46 38 26 7 350 341 336 332 323 308 303 304 304 293 277 277 281 284 287 291 296 300 305 307 309 311 313 315 317 320 322 327 327 325 323
173 172 164 163 162 154 142 124 110 116 118 110 105 110 126 116 111 123 121 113 108 107 119 120 191 225 223 203 188 191 213 102 39 48 357 345 5 7 16 34 46 52 48 36 33 23 9 357 355 9 12 347 337 323 320 323 315 311 307 297 294 293 287 279 277 277 276 278 282 287 292 296 302 304 306 307 308 309 311 313 314 321 322 320 318
171 168 157 153 150 138 124 112 110 125 129 111 105 116 123 98 98 124 117 109 121 156 187 192 207 214 215 217 213 206 247 298 281 287 320 324 352 358 16 30 34 38 29 16 14 2 345 327 321 326 326 309 298 292 271 261 269 276 280 278 277 279 279 274 276 278 271 273 280 284 287 292 299 303 305 304 305 306 306 306 307 313 315 315 315
154 154 148 145 137 131 124 121 131 141 137 123 123 146 145 134 135 137 140 166 183 192 190 180 184 198 200 231 295 196 221 274 264 274 303 308 348 9 67 55 44 29 15 14 10 344 304 288 290 294 295 285 280 277 255 236 242 255 263 269 274 280 284 281 290 294 280 277 280 280 283 290 297 301 302 302 304 305 305 303 303 307 310 311 312
144 146 144 139 133 136 137 141 153 152 148 146 153 166 168 174 161 154 173 188 188 185 176 162 162 191 183 328 277 213 210 225 227 243 251 209 156 154 96 50 40 17 350 351 321 280 271 273 276 275 274 270 270 267 253 246 252 257 259 267 277 285 289 289 298 299 292 287 284 282 286 293 297 300 301 300 303 306 306 304 301 303 307 306 306
144 142 139 140 140 146 150 157 162 155 157 161 170 178 183 186 173 168 178 178 178 173 167 164 163 162 54 310 299 266 227 208 183 190 210 176 151 141 77 56 28 315 286 299 301 297 291 286 281 282 283 275 273 272 263 259 265 270 270 272 274 282 290 289 290 291 293 293 289 288 290 294 297 298 300 301 305 307 307 304 298 299 302 302 300
136 137 139 147 154 159 164 169 165 157 160 170 181 187 186 182 175 171 172 175 173 164 163 160 156 161 173 228 352 51 205 135 128 149 170 179 157 92 64 20 295 310 307 294 302 304 299 296 291 294 299 285 278 280 273 265 265 270 274 278 280 284 288 287 289 290 294 296 294 294 295 298 300 302 304 305 308 309 308 305 299 295 296 298 296
135 141 149 162 169 168 167 166 164 161 169 181 183 179 173 170 168 165 169 175 166 161 167 155 157 168 141 113 67 42 21 76 115 137 142 328 23 44 34 355 328 328 312 295 291 292 292 294 292 297 303 298 293 288 285 278 272 272 271 275 283 288 287 286 287 287 292 295 295 295 296 300 302 303 304 306 309 310 310 308 302 296 292 293 294
150 159 169 174 164 160 163 165 166 169 178 186 181 172 168 164 161 162 165 167 163 165 162 155 168 146 101 87 75 359 347 8 88 101 29 341 343 352 351 330 316 308 294 287 284 281 281 284 289 299 303 304 302 295 292 290 286 284 277 274 281 290 293 292 289 289 294 295 294 292 291 295 298 302 303 305 308 310 311 308 304 300 294 290 289
165 173 175 161 149 158 169 169 170 176 181 183 180 174 169 162 160 162 162 163 164 163 155 158 160 127 114 117 115 104 64 48 38 89 139 231 206 271 286 288 295 292 284 283 286 284 278 280 291 300 303 306 305 300 297 295 293 291 289 290 292 295 298 299 298 297 296 296 296 293 292 296 302 309 309 307 310 313 313 309 306 304 299 292 286
173 174 167 151 150 164 172 172 176 180 178 178 178 175 170 165 164 167 166 164 162 158 154 154 143 126 129 126 104 87 89 82 41 53 62 234 235 262 263 267 278 282 284 288 291 285 279 286 295 300 304 307 304 302 298 294 294 295 297 298 295 294 296 299 300 300 300 301 300 299 301 307 313 319 318 315 314 315 315 312 310 309 306 298 289
176 173 165 154 155 165 171 175 179 178 174 175 176 175 172 169 169 172 165 157 154 149 149 150 139 122 120 113 84 40 27 61 28 19 330 279 258 251 255 259 264 274 280 285 289 286 290 295 297 301 305 306 307 304 296 291 295 301 304 301 296 296 298 304 305 305 309 311 308 307 310 315 318 321 324 324 320 318 319 317 316 315 313 306 296
179 176 165 157 160 167 172 174 174 175 172 172 175 175 174 171 169 167 159 150 146 143 144 145 134 120 124 124 89 353 268 20 37 320 254 256 250 247 263 269 270 280 279 282 288 291 299 300 298 301 303 306 310 307 301 301 305 308 310 310 309 309 309 314 321 323 326 329 330 326 323 324 321 318 321 325 323 321 322 321 320 319 317 312 305
178 175 167 163 165 169 172 170 170 172 170 171 174 171 171 171 166 160 154 147 143 143 142 139 143 147 154 169 184 204 221 13 347 230 243 252 249 252 267 270 266 273 274 277 281 282 295 302 301 301 302 307 308 304 303 307 310 311 314 323 332 327 325 337 351 346 337 338 341 343 344 334 320 319 323 325 325 325 326 325 324 324 323 319 312
175 174 170 170 171 171 172 174 172 171 169 169 169 165 164 165 162 157 150 145 147 153 153 156 172 182 188 194 190 189 196 217 228 233 242 248 250 254 259 258 255 257 259 264 268 275 284 292 296 298 297 296 292 294 301 306 307 307 309 323 337 331 327 346 345 346 342 339 340 344 346 333 325 332 335 332 332 333 332 330 328 326 324 321 316
174 174 172 174 175 174 175 177 175 170 168 167 166 162 159 160 158 155 150 149 153 157 160 173 190 192 198 212 214 234 242 227 231 239 241 245 252 256 254 253 254 255 257 260 263 269 278 283 287 294 295 290 289 292 301 307 306 310 312 320 342 334 320 311 296 8 356 336 338 349 357 355 351 349 344 340 335 331 332 333 329 325 322 320 317
173 173 173 175 176 178 179 178 175 169 166 166 164 161 160 162 162 163 161 160 161 162 166 178 194 199 216 253 264 254 244 235 238 240 241 246 249 252 253 254 257 260 263 267 269 268 270 272 271 275 288 297 299 301 307 309 311 322 323 325 345 347 294 296 271 3 344 330 341 0 10 18 16 7 359 354 342 333 335 335 331 327 323 321 316
172 171 173 176 178 180 178 174 170 166 163 163 161 162 165 165 168 172 170 166 163 162 166 176 196 216 235 253 252 243 239 240 242 241 242 247 250 252 253 254 257 260 261 264 271 273 272 274 274 270 271 279 287 294 305 308 310 319 320 327 346 347 313 287 245 263 323 320 307 330 337 346 7 16 18 13 2 355 349 342 339 334 328 325 320
172 172 176 179 178 176 172 168 165 164 165 164 162 165 166 165 168 168 166 165 160 162 171 179 204 226 230 235 239 240 242 244 244 244 246 248 252 256 258 259 261 261 261 261 266 272 275 279 281 279 277 277 276 280 290 296 303 318 326 334 348 353 341 312 296 297 308 305 290 306 316 310 328 356 6 15 16 10 0 354 351 347 341 336 327
172 176 178 178 175 171 168 165 165 166 167 166 167 170 169 169 168 159 157 162 162 172 189 201 219 227 230 235 237 241 247 250 248 248 250 252 255 258 262 265 264 263 264 264 265 269 276 283 288 289 290 292 292 295 297 288 296 318 335 348 357 358 345 322 313 308 299 296 295 303 312 313 323 328 327 337 352 357 354 353 352 349 348 342 333
175 178 176 174 172 169 167 167 167 166 166 167 170 172 172 173 172 166 165 167 165 177 208 232 237 233 234 237 235 236 242 248 250 252 254 257 256 256 261 262 263 265 265 263 262 266 277 293 307 306 301 307 317 330 341 323 314 316 332 18 51 12 335 319 317 305 297 300 300 304 307 308 312 309 308 309 310 322 329 344 360 0 358 355 351
177 177 172 171 170 169 169 169 168 164 163 166 168 171 174 171 170 173 172 168 164 176 219 245 253 256 254 251 243 237 238 242 248 254 255 256 255 251 252 255 257 261 254 244 255 281 316 340 349 342 339 347 349 350 359 7 12 20 34 109 150 142 308 314 325 313 306 305 305 309 309 310 314 312 310 309 307 310 313 338 11 11 5 3 1
174 173 170 169 170 169 169 166 164 162 162 165 166 168 171 168 166 168 166 163 169 190 232 256 266 267 263 264 260 248 244 242 243 248 248 246 244 235 231 233 227 216 210 197 2 6 13 10 360 351 350 354 358 358 357 2 15 31 39 40 64 103 79 335 345 337 323 312 311 313 311 312 322 325 325 321 320 322 320 339 1 358 355 350 344
170 169 168 167 166 164 163 161 159 159 159 161 163 164 164 164 166 168 170 176 197 227 250 261 266 264 259 265 268 254 236 231 226 224 226 218 200 191 193 189 172 166 150 82 60 38 24 11 352 345 349 350 358 5 6 9 16 23 19 12 19 26 22 12 5 7 8 341 326 325 322 318 320 327 332 330 332 336 336 338 337 340 348 340 328
165 165 165 164 163 162 164 162 159 158 158 161 165 167 167 169 175 185 200 213 228 242 249 254 260 261 259 263 260 239 202 197 193 186 187 177 166 168 166 155 145 142 125 108 105 91 70 43 12 357 3 13 20 20 27 34 31 24 7 354 2 9 10 12 11 14 18 8 349 337 334 332 327 330 336 337 337 341 344 341 328 336 347 336 322
162 163 163 163 164 165 167 164 161 161 162 164 169 172 175 181 191 205 219 227 231 234 239 246 249 260 269 242 218 190 167 167 165 163 163 157 153 153 150 142 136 138 131 122 119 107 95 78 59 52 46 46 46 42 49 58 54 36 16 7 10 12 14 17 15 18 19 13 1 347 343 341 335 333 338 341 343 346 348 344 339 341 342 334 327